INTELSAT 35E (IS-35E)

Last updated on Sun Jun 21 2026 00:03:07 GMT+0000 (Coordinated Universal Time)

1 42818U 17041A 26171.38513712 -.00000242 00000+0 00000+0 0 9990 2 42818 0.0180 23.6269 0002053 67.1464 281.9730 1.00272940 32842
UTC large
Height (km)
Speed (km/s)
/
Latitude / Longitude
Inclination (degrees)
Orbital Period (minutes)
Azimuth
Elevation
Range (km)
Doppler Factor

Next 0 passes for location: London (51.5072 / 0.1276)

No passes found over London.
INTELSAT 35E (IS-35E)